INNOCUBE (TUSAT-31)

导读

INNOCUBE(又名TUSAT‑31)是由德国维尔茨堡大学与柏林工业大学联合研制的3U立方星,美国于2025年1月14日将其发射入轨,运行在低地球轨道,作为空间技术验证平台。该卫星于2025年10月完成全球首次基于人工智能的卫星姿态控制在轨测试,AI自主控制完成姿态机动,全程无人工干预,验证了深度强化学习控制器的稳定性和精度,同时还搭载验证了SKITH无线总线技术,以无线传输替代传统线缆,降低故障风险,为航天智能自主控制开辟了新方向。

Basic Information
目录编号:
62616
目录名称:
INNOCUBE (TUBSAT-31)
国际标识:
2025-009H
轨道中心:
EARTH
卫星名称:
INNOCUBE (TUSAT-31)
卫星全名:
INNOCUBE (TUSAT-31)
卫星状态:
在轨 (已飞行598 天)
发射日期:
2025-01-14 UTC
国别 :
德国 (DE)
星等 :
--
Orbit Information
数据来源 国际轨道数据
星历时间: 2026-09-03T19:03:43+0800
15小时前
查看轨道信息
半长轴: 6861.52km
偏心率: 0.0007081
轨道倾角: 97.385°
近地点辐角 64.475°
升交点赤经 325.666°
平近点角 295.722°
近地点: 478.524km
远地点: 488.242km
周期: 94.274分钟
每日圈数: 15.274688
Detailed Information
使用方式:
暂无
2D Orbit Map
3D Orbit Map
Orbit Altitude Analysis Chart
Orbit Inclination Analysis Chart
Orbit Comprehensive Analysis Chart
View Comprehensive Chart
Conjunction Data List
Event ID Objects TCA Miss Dist (km) Collision Risk Probability Collision Risk Index (CRI) Action
CDM_260904-011505-867506-261623
2026-09-04T
01:15:47+0000
0.211 km
中距离
7.502603E-4 高风险 0.93
CDM_260830-021805-536506-261622
2026-08-30T
02:18:55+0000
0.715 km
远距离
6.943873E-5 中风险 0.72
CDM_260827-185005-862206-261622
2026-08-27T
18:50:25+0000
1.478 km
极远距离
6.653593E-6 低风险 0.51
CDM_260903-172505-917806-261623
2026-09-03T
17:25:45+0000
1.530 km
极远距离
6.11394E-6 低风险 0.51
CDM_260830-083605-535306-261624
2026-08-30T
08:36:41+0000
1.698 km
极远距离
3.614805E-6 低风险 0.46
CDM_260903-162206-261606-402024
2026-09-03T
16:22:31+0000
1.760 km
极远距离
3.598284E-6 低风险 0.46
CDM_260903-155706-261606-396223
2026-09-03T
15:57:31+0000
1.784 km
极远距离
3.09484E-6 低风险 0.45
CDM_260828-213605-771606-261623
2026-08-28T
21:36:29+0000
1.912 km
极远距离
2.749366E-6 低风险 0.44
CDM_260903-155705-879706-261623
2026-09-03T
15:57:55+0000
2.017 km
极远距离
2.326921E-6 低风险 0.42
CDM_260828-195805-862206-261624
2026-08-28T
19:58:51+0000
2.380 km
极远距离
1.850696E-6 低风险 0.4